NOZ12RZ ENGM-LOWS

Flight info

Callsign NOZ12RZ
Flight time N/A
Altitude 31000
Route OKSAT L996 GETPA/N0455F330 L996 KELIN DCT SALLO/N0459F350 DCT MAREM/N0457F340 DCT VESUB T106 NETES T700 BADIT BADIT2R
Aircraft B738/M-SDE2E3FGHIRWXY/LB1

Departure

Time 2026-05-08 08:07
Airport Oslo-Gardermoen International Airport (ENGM)

Arrival

Time N/A
Airport Salzburg Airport (LOWS)
Time Latitude Longitude Altitude Speed Heading
2026-05-08 07:34 60.19632 11.09952 678 ft 0 kts 106°
2026-05-08 07:59 60.19636 11.09921 676 ft 4 kts 104°
2026-05-08 07:59 60.19642 11.09868 681 ft 4 kts 101°
2026-05-08 07:59 60.19646 11.09815 684 ft 4 kts 94°
2026-05-08 07:59 60.19646 11.09762 684 ft 4 kts 75°
2026-05-08 08:00 60.19635 11.09726 682 ft 2 kts 17°
2026-05-08 08:00 60.19634 11.09725 682 ft 1 kts 15°
2026-05-08 08:02 60.19672 11.09747 683 ft 12 kts 17°
2026-05-08 08:02 60.19758 11.09796 683 ft 13 kts 16°
2026-05-08 08:02 60.19842 11.09844 683 ft 12 kts 16°
2026-05-08 08:03 60.19926 11.09893 682 ft 13 kts 16°
2026-05-08 08:03 60.20009 11.09941 683 ft 12 kts 19°
2026-05-08 08:03 60.20035 11.10083 680 ft 12 kts 104°
2026-05-08 08:03 60.20012 11.10243 685 ft 12 kts 107°
2026-05-08 08:04 60.19990 11.10401 683 ft 12 kts 105°
2026-05-08 08:04 60.19962 11.10598 681 ft 18 kts 107°
2026-05-08 08:04 60.19922 11.10873 681 ft 23 kts 105°
2026-05-08 08:04 60.19884 11.11147 682 ft 17 kts 105°
2026-05-08 08:05 60.19852 11.11365 679 ft 16 kts 106°
2026-05-08 08:05 60.19877 11.11545 682 ft 15 kts 19°
2026-05-08 08:05 60.19977 11.11604 685 ft 15 kts 15°
2026-05-08 08:05 60.20071 11.11670 683 ft 14 kts 38°
2026-05-08 08:06 60.20073 11.11851 684 ft 14 kts 106°
2026-05-08 08:06 60.20047 11.12030 685 ft 13 kts 106°
2026-05-08 08:06 60.19995 11.12167 684 ft 13 kts 166°
2026-05-08 08:06 60.19975 11.12164 685 ft 0 kts 194°
2026-05-08 08:07 60.19921 11.12135 687 ft 38 kts 195°
2026-05-08 08:07 60.19357 11.11811 679 ft 126 kts 196°
2026-05-08 08:07 60.18310 11.11234 949 ft 176 kts 193°
2026-05-08 08:07 60.17045 11.10547 1792 ft 190 kts 195°
2026-05-08 08:08 60.15834 11.09888 3281 ft 179 kts 195°
2026-05-08 08:08 60.14567 11.09216 3808 ft 201 kts 193°
2026-05-08 08:08 60.13114 11.09563 4105 ft 226 kts 156°
2026-05-08 08:08 60.11800 11.11389 4678 ft 237 kts 140°
2026-05-08 08:09 60.10593 11.13891 5055 ft 258 kts 136°
2026-05-08 08:09 60.09374 11.16575 5779 ft 264 kts 136°
2026-05-08 08:09 60.08126 11.19282 6722 ft 265 kts 136°
2026-05-08 08:09 60.06852 11.22007 7557 ft 268 kts 137°
2026-05-08 08:10 60.05375 11.24167 8370 ft 265 kts 163°
2026-05-08 08:10 60.03586 11.25070 9267 ft 265 kts 170°
2026-05-08 08:10 60.01794 11.25832 10081 ft 268 kts 170°
2026-05-08 08:10 59.99943 11.26615 10700 ft 279 kts 170°
2026-05-08 08:11 59.97953 11.27472 10873 ft 304 kts 169°
2026-05-08 08:11 59.95800 11.28423 11060 ft 327 kts 169°
2026-05-08 08:11 59.93525 11.29448 11298 ft 346 kts 168°
2026-05-08 08:11 59.91140 11.30541 11820 ft 355 kts 168°
2026-05-08 08:12 59.88733 11.31659 12524 ft 358 kts 168°
2026-05-08 08:12 59.86278 11.32806 13239 ft 363 kts 168°
2026-05-08 08:12 59.83822 11.33959 13919 ft 367 kts 168°
2026-05-08 08:12 59.81336 11.35125 14526 ft 372 kts 168°
2026-05-08 08:13 59.78792 11.36315 15153 ft 375 kts 168°
2026-05-08 08:13 59.76249 11.37503 15769 ft 379 kts 168°
2026-05-08 08:13 59.73656 11.38715 16387 ft 383 kts 168°
2026-05-08 08:13 59.71069 11.39923 16994 ft 387 kts 168°
2026-05-08 08:14 59.68414 11.41159 17593 ft 390 kts 168°
2026-05-08 08:14 59.65780 11.42385 18185 ft 394 kts 168°
2026-05-08 08:14 59.63078 11.43640 18742 ft 398 kts 168°
2026-05-08 08:14 59.60402 11.44881 19262 ft 400 kts 168°
2026-05-08 08:15 59.57665 11.46149 19804 ft 402 kts 168°
2026-05-08 08:15 59.54929 11.47415 20330 ft 405 kts 168°
2026-05-08 08:15 59.52194 11.48677 20828 ft 407 kts 168°
2026-05-08 08:15 59.49417 11.49957 21338 ft 410 kts 168°
2026-05-08 08:16 59.46638 11.51248 21825 ft 412 kts 168°
2026-05-08 08:16 59.43858 11.52545 22308 ft 415 kts 168°
2026-05-08 08:16 59.41021 11.53870 22779 ft 418 kts 168°
2026-05-08 08:16 59.38204 11.55185 23230 ft 420 kts 168°
2026-05-08 08:17 59.35346 11.56516 23675 ft 423 kts 168°
2026-05-08 08:17 59.32478 11.57849 24064 ft 425 kts 168°
2026-05-08 08:17 59.29578 11.59195 24433 ft 428 kts 168°
2026-05-08 08:17 59.26674 11.60539 24789 ft 430 kts 168°
2026-05-08 08:18 59.23751 11.61890 25133 ft 432 kts 168°
2026-05-08 08:18 59.20847 11.63228 25461 ft 434 kts 168°
2026-05-08 08:18 59.17886 11.64591 25792 ft 437 kts 168°
2026-05-08 08:18 59.14915 11.65956 26117 ft 439 kts 168°
2026-05-08 08:19 59.12940 11.66862 26330 ft 441 kts 168°
2026-05-08 08:19 59.09940 11.68236 26646 ft 443 kts 168°
2026-05-08 08:19 59.06924 11.69614 26950 ft 445 kts 168°
2026-05-08 08:19 59.03915 11.70987 27270 ft 446 kts 168°
2026-05-08 08:20 59.00874 11.72373 27569 ft 448 kts 168°
2026-05-08 08:20 58.97860 11.73744 27854 ft 450 kts 168°
2026-05-08 08:20 58.94793 11.75137 28232 ft 450 kts 168°
2026-05-08 08:20 58.91753 11.76514 28701 ft 448 kts 168°
2026-05-08 08:21 58.88720 11.77887 29174 ft 446 kts 168°
2026-05-08 08:21 58.85697 11.79251 29578 ft 445 kts 168°
2026-05-08 08:21 58.82677 11.80613 29962 ft 445 kts 168°
2026-05-08 08:21 58.79696 11.81953 30353 ft 444 kts 168°
2026-05-08 08:22 58.76675 11.83310 30717 ft 443 kts 168°
2026-05-08 08:22 58.73698 11.84645 31108 ft 440 kts 168°
2026-05-08 08:22 58.70710 11.85981 31261 ft 443 kts 168°
2026-05-08 08:23 58.64694 11.88665 31273 ft 444 kts 168°
2026-05-08 08:23 58.58693 11.91334 31338 ft 440 kts 168°
2026-05-08 08:23 58.55714 11.92655 31615 ft 440 kts 168°
2026-05-08 08:24 58.52753 11.93965 31867 ft 441 kts 168°
2026-05-08 08:24 58.49726 11.95303 32134 ft 441 kts 168°
2026-05-08 08:24 58.46761 11.96611 32380 ft 440 kts 167°
2026-05-08 08:24 58.43765 11.97931 32638 ft 439 kts 167°
2026-05-08 08:25 58.40812 11.99229 32898 ft 438 kts 167°
2026-05-08 08:25 58.37823 12.00541 33166 ft 437 kts 167°
2026-05-08 08:25 58.34885 12.01828 33276 ft 438 kts 167°
2026-05-08 08:26 58.28945 12.04424 33270 ft 436 kts 167°
2026-05-08 08:26 58.23024 12.07002 33276 ft 433 kts 167°
2026-05-08 08:27 58.17163 12.09546 33276 ft 432 kts 167°
2026-05-08 08:27 58.11317 12.12075 33277 ft 431 kts 167°
2026-05-08 08:28 58.05475 12.14593 33272 ft 431 kts 167°
2026-05-08 08:28 57.99648 12.17097 33273 ft 432 kts 167°
2026-05-08 08:29 57.93778 12.19610 33274 ft 433 kts 168°
2026-05-08 08:29 57.87899 12.22119 33274 ft 434 kts 167°
2026-05-08 08:30 57.81978 12.24638 33254 ft 436 kts 167°
2026-05-08 08:30 57.73094 12.28401 33266 ft 438 kts 167°
2026-05-08 08:31 57.67126 12.30918 33267 ft 439 kts 167°
2026-05-08 08:31 57.61181 12.33417 33279 ft 440 kts 167°
2026-05-08 08:32 57.55189 12.35928 33277 ft 440 kts 167°
2026-05-08 08:32 57.49218 12.38421 33280 ft 440 kts 167°
2026-05-08 08:33 57.43287 12.40889 33277 ft 440 kts 167°
2026-05-08 08:33 57.37306 12.43370 33278 ft 439 kts 167°
2026-05-08 08:34 57.31360 12.45828 33279 ft 439 kts 167°
2026-05-08 08:34 57.25399 12.48283 33276 ft 438 kts 167°
2026-05-08 08:35 57.19433 12.50733 33283 ft 438 kts 167°
2026-05-08 08:35 57.13514 12.53156 33268 ft 438 kts 166°
2026-05-08 08:36 57.07536 12.55595 33282 ft 438 kts 166°
2026-05-08 08:36 57.01614 12.58003 33283 ft 438 kts 166°
2026-05-08 08:37 56.95633 12.60427 33286 ft 440 kts 166°
2026-05-08 08:37 56.89636 12.62850 33289 ft 440 kts 166°
2026-05-08 08:38 56.83665 12.65254 33291 ft 441 kts 166°
2026-05-08 08:38 56.77670 12.67660 33292 ft 442 kts 166°
2026-05-08 08:39 56.71639 12.70072 33300 ft 442 kts 166°
2026-05-08 08:39 56.65635 12.72465 33292 ft 443 kts 166°
2026-05-08 08:40 56.59620 12.74856 33291 ft 443 kts 166°
2026-05-08 08:40 56.53617 12.77234 33289 ft 443 kts 166°
2026-05-08 08:41 56.47599 12.79609 33265 ft 443 kts 166°
2026-05-08 08:41 56.41585 12.81976 33273 ft 443 kts 166°
2026-05-08 08:42 56.35528 12.84352 33264 ft 444 kts 166°
2026-05-08 08:42 56.29496 12.86711 33267 ft 444 kts 166°
2026-05-08 08:43 56.23450 12.89067 33277 ft 445 kts 166°
2026-05-08 08:43 56.17399 12.91418 33279 ft 445 kts 166°
2026-05-08 08:44 56.11343 12.93763 33274 ft 446 kts 166°
2026-05-08 08:44 56.05274 12.96105 33275 ft 446 kts 166°
2026-05-08 08:45 55.99199 12.98442 33273 ft 447 kts 166°
2026-05-08 08:45 55.93127 13.00771 33272 ft 447 kts 166°
2026-05-08 08:46 55.87063 13.03089 33279 ft 447 kts 166°
2026-05-08 08:46 55.81009 13.05395 33286 ft 447 kts 166°
2026-05-08 08:47 55.74908 13.07713 33281 ft 448 kts 166°
2026-05-08 08:47 55.68804 13.10024 33285 ft 449 kts 166°
2026-05-08 08:48 55.62662 13.12342 33281 ft 450 kts 166°
2026-05-08 08:48 55.56539 13.14645 33278 ft 451 kts 167°
2026-05-08 08:49 55.50410 13.16943 33267 ft 451 kts 166°
2026-05-08 08:49 55.44276 13.19237 33269 ft 451 kts 167°
2026-05-08 08:50 55.38138 13.21524 33273 ft 451 kts 167°
2026-05-08 08:50 55.31967 13.23816 33274 ft 452 kts 167°
2026-05-08 08:51 55.25824 13.26091 33269 ft 451 kts 167°
2026-05-08 08:51 55.19710 13.28347 33274 ft 451 kts 167°
2026-05-08 08:52 55.13550 13.30615 33288 ft 451 kts 167°
2026-05-08 08:52 55.07411 13.32866 33287 ft 451 kts 167°
2026-05-08 08:53 55.01268 13.35113 33283 ft 452 kts 167°
2026-05-08 08:53 54.95122 13.37355 33281 ft 452 kts 168°
2026-05-08 08:54 54.88915 13.39027 33272 ft 453 kts 177°
2026-05-08 08:54 54.82623 13.39372 33276 ft 453 kts 178°
2026-05-08 08:55 54.76313 13.39642 33274 ft 453 kts 178°
2026-05-08 08:55 54.70020 13.39980 33284 ft 454 kts 178°
2026-05-08 08:56 54.63702 13.40365 33272 ft 454 kts 178°
2026-05-08 08:56 54.57392 13.40763 33273 ft 454 kts 178°
2026-05-08 08:57 54.51048 13.41164 33263 ft 454 kts 179°
2026-05-08 08:57 54.44732 13.41559 33263 ft 454 kts 179°
2026-05-08 08:58 54.38429 13.41951 33257 ft 454 kts 179°
2026-05-08 08:58 54.32116 13.42343 33265 ft 455 kts 179°
2026-05-08 08:59 54.25796 13.42733 33243 ft 455 kts 178°
2026-05-08 08:59 54.19475 13.43124 33247 ft 455 kts 180°
2026-05-08 09:00 54.13160 13.43512 33248 ft 455 kts 180°
2026-05-08 09:00 54.06833 13.43898 33241 ft 455 kts 180°
2026-05-08 09:01 54.00505 13.44285 33239 ft 455 kts 180°
2026-05-08 09:01 53.94185 13.44670 33234 ft 455 kts 180°
2026-05-08 09:02 53.87828 13.45056 33235 ft 456 kts 179°
2026-05-08 09:02 53.81531 13.45437 33225 ft 456 kts 180°
2026-05-08 09:03 53.75176 13.45822 33220 ft 456 kts 180°
2026-05-08 09:03 53.68825 13.46203 33216 ft 456 kts 180°
2026-05-08 09:04 53.63566 13.46518 33226 ft 456 kts 180°
2026-05-08 09:04 53.57189 13.46900 33215 ft 457 kts 180°
2026-05-08 09:05 53.50841 13.47279 33217 ft 457 kts 180°
2026-05-08 09:05 53.44485 13.47657 33206 ft 457 kts 180°
2026-05-08 09:06 53.38143 13.48033 33209 ft 457 kts 180°
2026-05-08 09:06 53.31757 13.48411 33207 ft 458 kts 180°
2026-05-08 09:07 53.25429 13.48783 33207 ft 458 kts 180°
2026-05-08 09:07 53.19061 13.49158 33197 ft 457 kts 180°
2026-05-08 09:08 53.12685 13.49531 33201 ft 457 kts 180°
2026-05-08 09:08 53.06318 13.49903 33197 ft 458 kts 180°
2026-05-08 09:09 52.99957 13.50274 33200 ft 458 kts 180°
2026-05-08 09:09 52.93603 13.50642 33190 ft 458 kts 180°
2026-05-08 09:10 52.87255 13.51010 33200 ft 457 kts 180°
2026-05-08 09:10 52.80884 13.51378 33198 ft 457 kts 180°
2026-05-08 09:11 52.74534 13.51744 33194 ft 457 kts 180°
2026-05-08 09:11 52.68182 13.52108 33190 ft 457 kts 180°
2026-05-08 09:12 52.61849 13.52471 33188 ft 457 kts 180°
2026-05-08 09:12 52.55470 13.52835 33193 ft 457 kts 180°
2026-05-08 09:13 52.49123 13.53196 33182 ft 457 kts 180°
2026-05-08 09:13 52.42754 13.53557 33180 ft 456 kts 180°
2026-05-08 09:14 52.36408 13.53916 33184 ft 456 kts 180°
2026-05-08 09:14 52.30074 13.54274 33198 ft 456 kts 180°
2026-05-08 09:15 52.23743 13.54629 33180 ft 457 kts 180°
2026-05-08 09:15 52.17363 13.54987 33177 ft 457 kts 180°
2026-05-08 09:16 52.11016 13.55343 33182 ft 456 kts 180°
2026-05-08 09:16 52.04691 13.55696 33173 ft 456 kts 180°
2026-05-08 09:17 51.98344 13.56049 33191 ft 455 kts 180°
2026-05-08 09:17 51.92025 13.56399 33175 ft 454 kts 180°
2026-05-08 09:18 51.85722 13.56748 33182 ft 453 kts 180°
2026-05-08 09:18 51.79453 13.57093 33179 ft 453 kts 180°
2026-05-08 09:19 51.73160 13.57439 33157 ft 453 kts 181°
2026-05-08 09:19 51.66863 13.57784 33171 ft 452 kts 181°
2026-05-08 09:20 51.60571 13.58129 33173 ft 452 kts 181°